KL1V-13 Weather Reports


Display with metric or nautical units.
time (UTC)temp
F
wind
direction
speed
MPH
gust
MPH
rain 1hr
in
rain 24hr
in
rain mn
in
humidity
%
barometer
mb
20260502231712 47 322 3.0 5.0 0.00 0.34 0.02 72 1020.8
20260502230732 47 327 2.0 3.0 0.00 0.35 0.02 71 1020.8
20260502225712 48 90 1.0 1.0 0.00 0.36 0.02 71 1020.8
20260502224712 49 122 2.0 5.0 0.00 0.36 0.02 71 1020.8
20260502223712 49 138 1.0 4.0 0.00 0.36 0.02 73 1020.8
20260502222714 48 0.0 0.0 0.00 0.36 0.02 72 1020.8
20260502221712 48 0.0 0.0 0.00 0.36 0.02 72 1020.4
20260502220712 48 140 0.0 4.0 0.00 0.37 0.02 72 1020.4
20260502215712 48 131 3.0 4.0 0.00 0.38 0.02 71 1020.1
20260502214732 48 176 1.0 2.0 0.00 0.38 0.02 71 1020.1
20260502213712 49 311 6.0 8.0 0.00 0.38 0.02 72 1019.7
20260502212712 49 199 2.0 4.0 0.00 0.39 0.02 73 1019.7
20260502211753 48 202 0.0 1.0 0.00 0.40 0.02 76 1019.7
20260502210713 47 112 1.0 2.0 0.00 0.40 0.02 76 1019.7
20260502205712 47 104 0.0 3.0 0.00 0.40 0.02 76 1019.4
20260502204733 47 112 0.0 3.0 0.00 0.41 0.02 76 1019.7
20260502203732 48 76 2.0 4.0 0.00 0.42 0.02 76 1019.6
20260502202712 48 202 0.0 1.0 0.00 0.42 0.02 76 1019.4
20260502201734 47 0.0 0.0 0.00 0.42 0.02 78 1019.3
20260502200732 47 112 1.0 2.0 0.00 0.42 0.02 80 1019.4
20260502195733 47 56 0.0 2.0 0.00 0.43 0.02 81 1019.1
20260502194713 46 315 3.0 5.0 0.00 0.44 0.02 83 1018.8
20260502193712 45 311 2.0 3.0 0.00 0.44 0.02 84 1018.7
20260502192712 45 180 2.0 4.0 0.00 0.45 0.02 85 1018.4
20260502191712 45 128 3.0 4.0 0.00 0.46 0.02 86 1018.4
20260502190712 45 112 3.0 3.0 0.00 0.46 0.02 87 1018.1
20260502185713 44 112 0.0 1.0 0.00 0.46 0.02 88 1018.0
20260502184712 43 67 0.0 1.0 0.00 0.48 0.02 89 1017.4
20260502183712 42 0.0 0.0 0.00 0.48 0.02 89 1017.4
20260502182733 42 0.0 0.0 0.00 0.49 0.02 89 1017.4
20260502181712 42 0.0 0.0 0.00 0.50 0.02 90 1017.4
20260502180712 42 0.0 0.0 0.00 0.50 0.02 91 1017.0
20260502163713 37 0.0 0.0 0.00 0.52 0.02 93 1015.0
20260502162712 36 0.0 0.0 0.00 0.53 0.02 93 1015.0
20260502161713 35 0.0 0.0 0.00 0.53 0.02 93 1014.6
20260502160712 35 0.0 0.0 0.00 0.54 0.02 93 1014.4
20260502151713 33 0.0 0.0 0.00 0.54 0.02 92 1013.7
20260502150712 33 0.0 0.0 0.00 0.54 0.02 92 1013.6
20260502130712 33 0.0 0.0 0.00 0.58 0.02 92 1012.3
20260502123753 33 0.0 0.0 0.00 0.59 0.02 92 1011.9
20260502122713 33 0.0 0.0 0.00 0.60 0.02 92 1011.9
20260502121733 33 315 2.0 2.0 0.00 0.60 0.02 92 1011.9
20260502120732 33 0.0 0.0 0.00 0.60 0.02 92 1011.9
20260502115733 33 0.0 0.0 0.00 0.60 0.02 92 1011.9
20260502114712 33 0.0 0.0 0.00 0.60 0.02 92 1011.9
20260502113712 33 0.0 0.0 0.00 0.60 0.02 92 1011.9
20260502112712 33 0.0 0.0 0.00 0.61 0.02 92 1011.9
20260502111712 33 0.0 0.0 0.00 0.62 0.02 92 1011.9
20260502110712 33 0.0 0.0 0.00 0.62 0.02 92 1011.9
20260502105712 33 0.0 0.0 0.00 0.62 0.02 92 1011.9
20260502104712 33 0.0 0.0 0.00 0.63 0.02 92 1011.6
20260502103712 33 0.0 0.0 0.00 0.64 0.02 92 1011.2
20260502102713 33 0.0 0.0 0.01 0.64 0.02 92 1011.2
20260502101733 33 0.0 0.0 0.01 0.64 0.02 92 1010.9
20260502100713 33 0.0 0.0 0.01 0.64 0.02 91 1010.9
20260502090712 33 0.0 0.0 0.01 0.65 0.01 91 1010.2
20260502070713 34 0.0 0.0 0.03 0.65 0.64 90 1008.5
20260502065732 34 0.0 0.0 0.03 0.64 0.63 90 1008.5
20260502064732 34 0.0 0.0 0.04 0.64 0.63 89 1008.4
20260502063732 34 0.0 0.0 0.04 0.64 0.63 89 1008.2
20260502062712 34 0.0 0.0 0.04 0.63 0.62 89 1008.2
20260502061712 35 0.0 0.0 0.04 0.62 0.61 89 1008.0
20260502060712 35 0.0 0.0 0.04 0.62 0.61 89 1007.8
20260502055712 35 0.0 0.0 0.05 0.61 0.60 89 1007.5
20260502054712 35 337 3.0 4.0 0.04 0.60 0.59 89 1007.5
20260502053712 36 328 4.0 5.0 0.04 0.60 0.59 89 1007.2
20260502052734 36 321 5.0 6.0 0.05 0.59 0.58 89 1007.2
20260502051712 36 310 6.0 8.0 0.04 0.58 0.57 89 1006.8
20260502050713 36 305 6.0 8.0 0.04 0.58 0.57 89 1006.7
20260502045713 36 314 6.0 8.0 0.04 0.57 0.55 89 1006.5
20260502044734 36 310 4.0 6.0 0.04 0.57 0.55 89 1006.5
20260502043713 36 319 4.0 8.0 0.06 0.57 0.55 89 1006.1
20260502042713 36 320 3.0 5.0 0.05 0.55 0.53 89 1006.1
20260502041712 36 316 6.0 9.0 0.06 0.55 0.53 89 1006.1
20260502040713 36 325 9.0 14.0 0.07 0.56 0.53 88 1006.1
20260502035713 36 336 5.0 7.0 0.06 0.54 0.51 88 1006.3
20260502034712 36 317 6.0 9.0 0.07 0.54 0.51 88 1006.0
20260502033712 36 324 8.0 11.0 0.06 0.52 0.49 88 1006.0
20260502032713 36 323 7.0 11.0 0.06 0.51 0.48 88 1006.1
20260502031712 36 327 9.0 17.0 0.06 0.50 0.47 88 1006.1
20260502030712 36 316 8.0 14.0 0.05 0.49 0.46 88 1006.1
20260502025713 36 306 10.0 18.0 0.05 0.48 0.45 88 1006.3
20260502024712 36 334 7.0 11.0 0.05 0.47 0.44 88 1006.5
20260502023713 36 309 6.0 7.0 0.04 0.46 0.43 88 1006.7
20260502022753 36 329 9.0 11.0 0.04 0.46 0.42 88 1006.5
20260502021713 37 334 4.0 7.0 0.04 0.45 0.41 88 1006.8
20260502020713 37 332 3.0 7.0 0.04 0.45 0.41 87 1006.8
20260502015712 37 358 6.0 11.0 0.03 0.44 0.40 88 1006.7
20260502014712 37 319 7.0 10.0 0.02 0.43 0.39 88 1006.3
20260502013712 37 330 7.0 11.0 0.03 0.43 0.39 88 1006.5
20260502012733 37 337 6.0 14.0 0.03 0.42 0.38 87 1006.5
20260502011712 37 327 10.0 16.0 0.02 0.41 0.37 87 1006.5
20260502010713 37 329 5.0 10.0 0.02 0.41 0.37 87 1006.5
20260502005713 37 317 9.0 15.0 0.03 0.41 0.37 87 1006.7
20260502004713 37 318 12.0 16.0 0.03 0.41 0.37 86 1006.5
20260502003713 37 329 10.0 17.0 0.03 0.40 0.36 87 1006.8
20260502002712 37 320 9.0 15.0 0.02 0.39 0.35 86 1006.8
20260502001712 37 338 9.0 13.0 0.02 0.39 0.35 87 1007.2
20260502000712 37 341 4.0 9.0 0.03 0.39 0.35 86 1007.3
20260501235712 37 326 9.0 13.0 0.03 0.39 0.34 86 1007.5
20260501234712 37 312 9.0 17.0 0.03 0.39 0.34 87 1007.8
20260501233712 37 325 9.0 14.0 0.02 0.38 0.33 87 1008.5
20260501232712 37 319 8.0 11.0 0.02 0.38 0.33 87 1008.5